Weather History for Anaktuvuk Pass, AK

Change the Weather History Date:

Wednesday, October 26, 2011

  Actual Average Record
Temperature  
Mean Temperature 12 °F -  
Max Temperature 14 °F 8 °F 35 °F (2002)
Min Temperature 10 °F 0 °F -27 °F (1996)
Degree Days  
Heating Degree Days 53    
Moisture  
Dew Point 8 °F    
Average Humidity 82    
Maximum Humidity 86    
Minimum Humidity 79    
Precipitation  
Precipitation 0.00 in - - ()
Sea Level Pressure  
Sea Level Pressure 29.23 in    
Wind  
Wind Speed 11 mph (NE)    
Max Wind Speed 17 mph    
Max Gust Speed 22 mph    
Visibility 5 miles    
Events      
Averages and records for this station are not official NWS values.
T = Trace of Precipitation, MM = Missing Value Source: NWS Daily Summary

Daily Weather History Graph

Daily Weather History Graph

Search for Another Location

Airport:

Trip Planner

Search our weather history database for the weather conditions in past years. The results will help you decide how hot, cold, wet, or windy it might be!

Date:

Astronomy

Oct. 26, 2011 Rise Set
Actual Time 9:54 AM AKDT 5:46 PM AKDT
Civil Twilight 8:52 AM AKDT 6:48 PM AKDT
Nautical Twilight 7:46 AM AKDT 7:53 PM AKDT
Astronomical Twilight 6:41 AM AKDT 8:58 PM AKDT
Moon 10:37 AM AKDT (10/26) 4:43 PM AKDT (10/26)
Length of Visible Light 9h 55m
Length of Day
7h 52m
Waning Crescent, 0% of the Moon is Illuminated
Oct 26
Waning Crescent
Nov 2
First Quarter
Nov 10
Full
Nov 18
Last Quarter
Nov 24
New

Hourly Weather History & Observations

Time (AKDT) Temp. Windchill Dew Point Humidity Pressure Visibility Wind Dir Wind Speed Gust Speed Precip Events Conditions
12:16 AM 10.4 °F -4.1 °F 5.0 °F 79% 29.11 in 3.0 mi NE 11.5 mph 16.1 mph N/A   Overcast
12:36 AM 10.4 °F -4.1 °F 5.0 °F 79% 29.12 in 2.5 mi NE 11.5 mph - N/A   Overcast
12:56 AM 10.4 °F -5.4 °F 6.8 °F 85% 29.12 in 3.0 mi NE 13.8 mph - N/A   Overcast
1:16 AM 10.4 °F -4.8 °F 6.8 °F 85% 29.13 in 5.0 mi NE 12.7 mph - N/A   Overcast
1:36 AM 10.4 °F -5.4 °F 6.8 °F 85% 29.12 in 5.0 mi NE 13.8 mph 17.3 mph N/A   Overcast
1:56 AM 10.4 °F -4.8 °F 6.8 °F 85% 29.12 in 7.0 mi NE 12.7 mph - N/A   Overcast
2:16 AM 10.4 °F -6.6 °F 6.8 °F 85% 29.12 in 6.0 mi NE 16.1 mph - N/A   Overcast
2:36 AM 10.4 °F -6.0 °F 6.8 °F 85% 29.12 in 3.0 mi NE 15.0 mph - N/A   Overcast
2:56 AM 10.4 °F -5.4 °F 6.8 °F 85% 29.12 in 3.0 mi NE 13.8 mph - N/A   Overcast
3:16 AM 10.4 °F -5.4 °F 6.8 °F 85% 29.12 in 3.0 mi NE 13.8 mph 18.4 mph N/A   Overcast
3:36 AM 10.4 °F -6.6 °F 6.8 °F 85% 29.12 in 2.0 mi NE 16.1 mph 20.7 mph N/A   Overcast
4:16 AM 10.4 °F -5.4 °F 6.8 °F 85% 29.12 in 3.0 mi NE 13.8 mph - N/A   Overcast
4:36 AM 10.4 °F -7.2 °F 6.8 °F 85% 29.12 in 2.5 mi NE 17.3 mph 21.9 mph N/A   Overcast
4:56 AM 10.4 °F -6.0 °F 6.8 °F 85% 29.13 in 2.5 mi NE 15.0 mph 19.6 mph N/A   Overcast
5:16 AM 10.4 °F -6.0 °F 6.8 °F 85% 29.14 in 3.0 mi NE 15.0 mph - N/A   Overcast
5:36 AM 10.4 °F -6.0 °F 6.8 °F 85% 29.14 in 2.5 mi NE 15.0 mph - N/A   Overcast
5:56 AM 10.4 °F -4.8 °F 6.8 °F 85% 29.14 in 4.0 mi NE 12.7 mph 18.4 mph N/A   Overcast
6:16 AM 10.4 °F -3.3 °F 6.8 °F 85% 29.15 in 10.0 mi NNE 10.4 mph - N/A   Overcast
6:36 AM 10.4 °F -4.1 °F 6.8 °F 85% 29.15 in 10.0 mi NNE 11.5 mph - N/A   Overcast
6:56 AM 12.2 °F -2.5 °F 6.8 °F 79% 29.16 in 10.0 mi NNE 12.7 mph 17.3 mph N/A   Overcast
7:16 AM 12.2 °F -2.5 °F 6.8 °F 79% 29.16 in 7.0 mi NE 12.7 mph - N/A   Overcast
7:36 AM 12.2 °F -1.8 °F 6.8 °F 79% 29.17 in 5.0 mi NE 11.5 mph - N/A   Overcast
7:56 AM 12.2 °F -2.5 °F 6.8 °F 79% 29.17 in 3.0 mi NE 12.7 mph 16.1 mph N/A   Overcast
8:16 AM 12.2 °F -1.0 °F 6.8 °F 79% 29.18 in 5.0 mi NE 10.4 mph - N/A   Overcast
8:36 AM 12.2 °F -2.5 °F 6.8 °F 79% 29.18 in 5.0 mi NE 12.7 mph - N/A   Overcast
8:56 AM 12.2 °F -3.1 °F 6.8 °F 79% 29.19 in 8.0 mi NE 13.8 mph - N/A   Overcast
9:16 AM 12.2 °F -2.5 °F 8.6 °F 85% 29.19 in 6.0 mi NE 12.7 mph - N/A   Overcast
9:36 AM 12.2 °F -1.8 °F 6.8 °F 79% 29.20 in 2.5 mi NE 11.5 mph - N/A   Overcast
9:56 AM 12.2 °F -2.5 °F 8.6 °F 85% 29.20 in 5.0 mi NE 12.7 mph - N/A   Overcast
10:16 AM 12.2 °F -1.8 °F 6.8 °F 79% 29.21 in 5.0 mi NE 11.5 mph - N/A   Overcast
10:36 AM 12.2 °F -1.8 °F 6.8 °F 79% 29.22 in 9.0 mi NE 11.5 mph - N/A   Overcast
10:56 AM 12.2 °F -1.8 °F 6.8 °F 79% 29.22 in 10.0 mi NE 11.5 mph - N/A   Mostly Cloudy
11:16 AM 12.2 °F -1.8 °F 6.8 °F 79% 29.23 in 10.0 mi NE 11.5 mph - N/A   Partly Cloudy
11:36 AM 12.2 °F -1.8 °F 8.6 °F 85% 29.23 in 10.0 mi NE 11.5 mph - N/A   Mostly Cloudy
11:56 AM 14.0 °F 1.2 °F 8.6 °F 79% 29.24 in 10.0 mi NE 10.4 mph - N/A   Overcast
12:16 PM 14.0 °F 1.2 °F 8.6 °F 79% 29.25 in 5.0 mi NE 10.4 mph - N/A   Overcast
12:36 PM 14.0 °F -0.2 °F 8.6 °F 79% 29.25 in 5.0 mi NE 12.7 mph - N/A   Overcast
12:56 PM 14.0 °F 1.2 °F 8.6 °F 79% 29.26 in 5.0 mi NE 10.4 mph - N/A   Overcast
1:16 PM 14.0 °F 0.5 °F 8.6 °F 79% 29.26 in 3.0 mi NE 11.5 mph - N/A   Overcast
1:36 PM 14.0 °F 0.5 °F 10.4 °F 86% 29.27 in 1.8 mi NE 11.5 mph - N/A   Overcast
1:56 PM 14.0 °F 1.2 °F 10.4 °F 86% 29.28 in 2.5 mi NE 10.4 mph - N/A   Overcast
2:16 PM 14.0 °F -0.2 °F 8.6 °F 79% 29.29 in 1.8 mi NE 12.7 mph - N/A   Overcast
2:36 PM 14.0 °F 1.2 °F 8.6 °F 79% 29.29 in 2.5 mi NE 10.4 mph - N/A   Overcast
2:56 PM 14.0 °F 2.0 °F 8.6 °F 79% 29.30 in 2.0 mi NE 9.2 mph - N/A   Overcast
3:16 PM 14.0 °F 2.0 °F 8.6 °F 79% 29.30 in 3.0 mi NE 9.2 mph - N/A   Overcast
3:36 PM 14.0 °F 2.0 °F 8.6 °F 79% 29.31 in 2.5 mi NE 9.2 mph - N/A   Overcast
3:56 PM 14.0 °F 2.9 °F 8.6 °F 79% 29.32 in 5.0 mi NE 8.1 mph - N/A   Overcast
4:16 PM 14.0 °F 2.9 °F 8.6 °F 79% 29.32 in 10.0 mi NE 8.1 mph - N/A   Overcast
4:36 PM 14.0 °F 2.9 °F 8.6 °F 79% 29.33 in 10.0 mi ENE 8.1 mph - N/A   Overcast
4:56 PM 12.2 °F 1.7 °F 8.6 °F 85% 29.33 in 10.0 mi NE 6.9 mph - N/A   Overcast
5:16 PM 12.2 °F 2.9 °F 6.8 °F 79% 29.34 in 8.0 mi NE 5.8 mph - N/A   Overcast
5:36 PM 12.2 °F 6.1 °F 6.8 °F 79% 29.34 in 10.0 mi North 3.5 mph - N/A   Overcast
5:56 PM 12.2 °F 2.9 °F 8.6 °F 85% 29.35 in 3.0 mi NE 5.8 mph - N/A   Overcast
6:16 PM 12.2 °F - 8.6 °F 85% 29.35 in 2.5 mi Calm Calm - N/A   Overcast
6:36 PM 12.2 °F 6.1 °F 6.8 °F 79% 29.36 in 9.0 mi North 3.5 mph - N/A   Overcast
6:56 PM 12.2 °F - 6.8 °F 79% 29.36 in 10.0 mi Calm Calm - N/A   Overcast
7:16 PM 10.4 °F 4.0 °F 6.8 °F 85% 29.37 in 10.0 mi North 3.5 mph - N/A   Overcast
7:36 PM 10.4 °F - 6.8 °F 85% 29.37 in 3.0 mi Calm Calm - N/A   Overcast
8:16 PM 12.2 °F - 8.6 °F 85% 29.38 in 5.0 mi Calm Calm - N/A   Overcast
8:36 PM 12.2 °F 6.1 °F 8.6 °F 85% 29.39 in 3.0 mi North 3.5 mph - N/A   Overcast
8:56 PM 12.2 °F - 8.6 °F 85% 29.39 in 3.0 mi Calm Calm - N/A   Overcast
9:16 PM 12.2 °F - 8.6 °F 85% 29.40 in 4.0 mi Calm Calm - N/A   Overcast
9:36 PM 12.2 °F - 8.6 °F 85% 29.40 in 10.0 mi Calm Calm - N/A   Overcast
9:56 PM 12.2 °F - 6.8 °F 79% 29.41 in 9.0 mi Calm Calm - N/A   Overcast
10:16 PM 10.4 °F - 6.8 °F 85% 29.41 in 7.0 mi Calm Calm - N/A   Mostly Cloudy
10:36 PM 10.4 °F - 6.8 °F 85% 29.41 in 10.0 mi Calm Calm - N/A   Overcast
10:56 PM 8.6 °F - 3.2 °F 79% 29.42 in 10.0 mi Calm Calm - N/A   Overcast
11:16 PM 10.4 °F - 6.8 °F 85% 29.42 in 5.0 mi Calm Calm - N/A   Overcast
11:36 PM 10.4 °F - 6.8 °F 85% 29.42 in 9.0 mi Calm Calm - N/A   Overcast
11:56 PM 10.4 °F - 6.8 °F 85% 29.43 in 10.0 mi Calm Calm - N/A   Overcast